Weather History for Ohio State University, OH

Change the Weather History Date:

Monday, May 13, 2013

  Actual Average Record
Temperature  
Mean Temperature 46 °F -  
Max Temperature 57 °F 70 °F 84 °F (2005)
Min Temperature 36 °F 48 °F 36 °F (2013)
Degree Days  
Heating Degree Days 20    
Moisture  
Dew Point 31 °F    
Average Humidity 58    
Maximum Humidity 89    
Minimum Humidity 34    
Precipitation  
Precipitation 0.00 in - - ()
Sea Level Pressure  
Sea Level Pressure 30.16 in    
Wind  
Wind Speed 4 mph (NW)    
Max Wind Speed 13 mph    
Max Gust Speed 17 mph    
Visibility 10 miles    
Events      
Averages and records for this station are not official NWS values.
T = Trace of Precipitation, MM = Missing Value Source: NWS Daily Summary

Daily Weather History Graph

Daily Weather History Graph

Search for Another Location

Airport:

Trip Planner

Search our weather history database for the weather conditions in past years. The results will help you decide how hot, cold, wet, or windy it might be!

Date:

Astronomy

May. 13, 2013 Rise Set
Actual Time 6:18 AM EDT 8:39 PM EDT
Civil Twilight 5:48 AM EDT 9:09 PM EDT
Nautical Twilight 5:10 AM EDT 9:47 PM EDT
Astronomical Twilight 4:28 AM EDT 10:29 PM EDT
Moon 9:03 AM EDT (5/13) 11:47 PM EDT (5/13)
Length of Visible Light 15h 21m
Length of Day
14h 20m
Waxing Crescent, 12% of the Moon is Illuminated
May 13
Waxing Crescent
May 18
First Quarter
May 25
Full
May 31
Last Quarter
Jun 8
New

Hourly Weather History & Observations

Time (EDT) Temp. Windchill Dew Point Humidity Pressure Visibility Wind Dir Wind Speed Gust Speed Precip Events Conditions
12:53 AM 39.9 °F 36.7 °F 30.9 °F 70% 30.14 in 10.0 mi NNW 4.6 mph - N/A   Overcast
1:53 AM 39.0 °F 36.8 °F 32.0 °F 76% 30.14 in 10.0 mi WNW 3.5 mph - N/A   Partly Cloudy
2:53 AM 39.9 °F - 32.0 °F 73% 30.13 in 10.0 mi Calm Calm - N/A   Overcast
3:53 AM 39.9 °F - 32.0 °F 73% 30.12 in 10.0 mi Calm Calm - N/A   Overcast
4:53 AM 39.0 °F - 33.1 °F 79% 30.12 in 10.0 mi Calm Calm - N/A   Overcast
5:53 AM 36.0 °F 33.3 °F 33.1 °F 89% 30.12 in 10.0 mi West 3.5 mph - N/A   Overcast
6:53 AM 36.0 °F - 33.1 °F 89% 30.14 in 10.0 mi Calm Calm - N/A   Clear
7:53 AM 41.0 °F 39.0 °F 34.0 °F 76% 30.16 in 10.0 mi West 3.5 mph - N/A   Mostly Cloudy
8:53 AM 46.0 °F 44.8 °F 25.0 °F 44% 30.18 in 10.0 mi North 3.5 mph - N/A   Scattered Clouds
9:53 AM 48.9 °F - 30.0 °F 48% 30.19 in 10.0 mi NNE 5.8 mph - N/A   Clear
10:53 AM 48.9 °F - 28.9 °F 46% 30.19 in 10.0 mi NW 5.8 mph - N/A   Scattered Clouds
11:53 AM 51.1 °F - 30.0 °F 44% 30.19 in 10.0 mi West 8.1 mph 17.3 mph N/A   Scattered Clouds
12:53 PM 53.1 °F - 32.0 °F 45% 30.19 in 10.0 mi WNW 9.2 mph - N/A   Overcast
1:53 PM 52.0 °F - 30.9 °F 45% 30.17 in 10.0 mi West 6.9 mph - N/A   Overcast
2:53 PM 53.1 °F - 30.0 °F 41% 30.17 in 10.0 mi NNW 9.2 mph - N/A   Mostly Cloudy
4:53 PM 55.9 °F - 28.9 °F 36% 30.14 in 10.0 mi NW 8.1 mph - N/A   Scattered Clouds
5:53 PM 55.9 °F - 28.0 °F 34% 30.14 in 10.0 mi West 12.7 mph 17.3 mph N/A   Scattered Clouds
6:53 PM 54.0 °F - 27.0 °F 35% 30.14 in 10.0 mi NNW 9.2 mph - N/A   Partly Cloudy
8:53 PM 50.0 °F - 27.0 °F 41% 30.15 in 10.0 mi Calm Calm - N/A   Clear
9:53 PM 46.9 °F - 30.0 °F 52% 30.16 in 10.0 mi Calm Calm - N/A   Clear
10:53 PM 43.0 °F - 32.0 °F 65% 30.17 in 10.0 mi Calm Calm - N/A   Clear
11:53 PM 42.1 °F - 32.0 °F 67% 30.16 in 10.0 mi Calm Calm - N/A   Clear